SL-14 R/B

基本信息
目录编号:
21423
目录名称:
SL-14 R/B
国际标识:
1991-042B
轨道中心:
EARTH
物体状态:
在轨
发射日期:
1991-06-13 UTC
国别:
俄罗斯(独联体) (CIS)
轨道信息
数据来源: 国际轨道数据
星历时间: 2026-09-05T11:58:56+0800
半长轴: 7001.34km
偏心率: 0.0017339
轨道倾角: 82.491°
近地点辐角: 16.338°
升交点赤经: 51.872°
平近点角: 343.839°
近地点: 611.063km
远地点: 635.343km
周期: 97.170分钟
每日圈数: 14.819415
详细信息
发射场:
PKMTR
轨道高度:
LEO
数据来源:
AOE Integration Group
参考系:
TEME
时间系统:
UTC
历元类型:
SGP4
2D轨道图
3D轨道图
轨道高度分析图
轨道倾角分析图
轨道综合分析图
查看轨道综合分析图